Regional Weather Roundup
Issued by NWS

Home | Current Version | Previous Version | Text Only | Print | Product List | Glossary On
Versions: 1 2 3 4 5 6 7 8 9 10 11 12 13 14 15 16 17 18 19 20 21 22 23 24 25 26 27 28 29 30 31 32 33 34 35 36 37 38 39 40 41 42 43 44 45 46 47 48
000
ASUS43 KMPX 131610
RWRMN
WEATHER ROUNDUP FOR MINNESOTA
NATIONAL WEATHER SERVICE TWIN CITIES/CHANHASSEN MN
1100 AM CDT THU AUG 13 2020


NOTE: "FAIR" INDICATES FEW OR NO CLOUDS BELOW 12,000 FEET WITH NO
SIGNIFICANT WEATHER AND/OR OBSTRUCTIONS TO VISIBILITY. N/A MEANS
CURRENT SKY AND/OR WEATHER CONDITIONS ARE NOT AVAILABLE.

MNZ060>063-068>070-131700-
   Twin Cities Metro

CITY           SKY/WX    TMP DP  RH WIND       PRES   REMARKS
TWIN CITIES    MOSUNNY   78  71  79 S8        30.01S
ST PAUL        SUNNY     80  71  74 SE7       30.01S
CRYSTAL        CLOUDY    78  70  76 S8        29.99S
BLAINE         PTSUNNY   79  70  73 SE10      30.01R
LAKEVILLE      MOSUNNY   81  66  61 S9        30.02S
EDEN PRAIRIE   CLOUDY    77  71  82 S9        30.00S
SOUTH ST PAUL  SUNNY     79  70  74 SE7       30.01F
LAKE ELMO      FAIR      77  72  83 S9        30.04S
$$
MNZ001>005-007-008-013>017-022>024-027-028-131700-
   Northwest Minnesota

CITY           SKY/WX    TMP DP  RH WIND       PRES   REMARKS
BEMIDJI        CLOUDY    67  65  93 SE14      29.95R
HALLOCK        CLOUDY    72  66  83 SE9       29.83R
ROSEAU         CLOUDY    70 N/A N/A SE14G20   29.89S
WARROAD        CLOUDY    70  64  83 SE15G22   29.91S
THIEF RVR FALL CLOUDY    73  67  81 SE20      29.86
CROOKSTON      PTSUNNY   73  70  88 S21G29    29.81F
FOSSTON        MOSUNNY   70  64  83 SE15G22   29.88S
DETROIT LAKES    N/A     70  68  94 SE14G20   29.89F
MOORHEAD       SUNNY     82  68  61 SE17G23   29.81S
PARK RAPIDS    CLOUDY    69  66  90 SE16      29.93F FOG
MAHNOMEN       CLOUDY    72  67  87 SE15G22   29.87F
$$
MNZ006-009>011-018-025>026-131700-
   North Central Minnesota

CITY           SKY/WX    TMP DP  RH WIND       PRES   REMARKS
BAUDETTE       CLOUDY    69  63  81 SE17G28   29.95F
FLAG ISLAND      N/A    N/A N/A N/A SE10      29.91F
INTL FALLS     CLOUDY    71  61  70 SE13G22   30.00S
WASKISH          N/A     68  63  83 SE12G20   29.95S
BIG FORK       CLOUDY    64  61  88 SE5       30.07R
LONGVILLE      CLOUDY    66  64  94 SE5       29.98  FOG
GRAND RAPIDS   CLOUDY    65  62  90 SE10      30.03S
CRANE LAKE     PTSUNNY   72  63  73 SE6       30.06R
ORR            CLOUDY    68  61  77 SE7       30.02S
COOK           CLOUDY    68  61  77 SE7       30.04S
WALKER         CLOUDY    66  65  96 SE6       29.97R
$$
MNZ012-019>021-037-131700-
   Northeast Minnesota

CITY           SKY/WX    TMP DP  RH WIND       PRES   REMARKS
DULUTH         CLOUDY    65  61  87 E10       30.06R
ELY            MOSUNNY   73  59  60 SE13G18   30.06S
HIBBING        CLOUDY    64  60  87 SE10      30.04R
EVELETH        CLOUDY    67  62  83 SE6       30.06S
DULUTH HARBOR  CLOUDY    66  61  82 NE10      30.05S
SILVER BAY       N/A     70  57  64 E9        30.08S
GRAND MARAIS     N/A     60  53  77 E7        30.10S
G MARAIS ARPRT CLOUDY    68  54  60 E8        30.13S
$$
MNZ029>031-032-039>041-046>048-054>057-064-131700-
   West Central Minnesota

CITY           SKY/WX    TMP DP  RH WIND       PRES   REMARKS
FERGUS FALLS   MOSUNNY   79  72  78 S18       29.85F
WHEATON        SUNNY     81  72  74 SE20      29.85R
MORRIS         SUNNY     81  73  78 S15       29.90R
ALEXANDRIA     PTSUNNY   77  71  82 S14       29.94R
ELBOW LAKE     FAIR      78  73  83 SE21      29.88S
WADENA         CLOUDY    72  72 100 SE13      29.92S
GLENWOOD       MOSUNNY   79  72  78 S15       29.94R
APPLETON       SUNNY     82  72  69 S12G17    29.89R
BENSON         MOSUNNY   81  73  78 S14G20    29.91S
ORTONVILLE     SUNNY     82  73  74 S10G17    29.87R
MADISON        SUNNY     84  75  74 S14G21    29.89R HX  92
WILLMAR        FAIR      81  72  74 S12G17    29.97S
$$
MNZ033>034-036-042>043-049>051-058-059-131700-
   Central Minnesota

CITY           SKY/WX    TMP DP  RH WIND       PRES   REMARKS
ST CLOUD       CLOUDY    73  70  90 SE13      29.98S
SAUK CENTRE    CLOUDY    77  73  87 S14       29.95R
PAYNESVILLE    CLOUDY    78  75  89 S7        29.96S
AITKIN         CLOUDY    66  63  88 SE7       29.99S
PINE RIVER     CLOUDY    68  66  94 E6        30.01R FOG
BRAINERD       CLOUDY    71  66  84 SE6       29.98S HAZE
STAPLES        CLOUDY    72  68  88 SE9       29.94F
LONG PRAIRIE   CLOUDY    72  70  94 SE8       29.95S
LITTLE FALLS   CLOUDY    70  70 100 SE8       29.98R
CAMP RIPLEY    CLOUDY    71  70  94 SE12      29.97S
LITCHFIELD     PTSUNNY   81  75  83 SE7       29.98S
BUFFALO        CLOUDY    73  69  88 MISG      30.01S
MAPLE LAKE       N/A     74  72  92 SE6       30.00S
HUTCHINSON     CLOUDY    77  74  91 SE7       30.00R
$$
MNZ037-044-045-052-053-131700-
   East Central Minnesota

CITY           SKY/WX    TMP DP  RH WIND       PRES   REMARKS
PRINCETON      CLOUDY    73  72  94 SE7       30.00S FOG
MORA           CLOUDY    70  66  88 S7        30.03S
CAMBRIDGE      PTSUNNY   75  64  69 SE6       30.01S
RUSH CITY      CLOUDY    72  66  81 SE3       30.02S
MOOSE LAKE     CLOUDY    70  64  83 SE3       30.01S
HINCKLEY       CLOUDY    72  68  88 SE9       30.03R
CLOQUET        CLOUDY    64  61  88 E7        30.04S
MCGREGOR       CLOUDY    70  66  88 SE9       30.02S
$$
MNZ071>073-080-081-089-090-097-098-131700-
   Southwest Minnesota

CITY           SKY/WX    TMP DP  RH WIND       PRES   REMARKS
MONTEVIDEO     MOSUNNY   81  72  74 SW12G20   29.92R
GRANITE FALLS  MOSUNNY   83  75  77 SE15G22   29.94S
CANBY          SUNNY     83  72  70 S10G17    29.92R
MARSHALL       MOSUNNY   83  74  74 S16       29.93S
REDWOOD FALLS  PTSUNNY   81  72  74 S18       29.95S
OLIVIA         PTSUNNY   79  72  78 S12G17    29.96R
PIPESTONE        N/A     81  73  78 S13       29.97R
WINDOM         MOSUNNY   81  72  74 S13G21    29.99R
WORTHINGTON    PTSUNNY   81  73  78 S13G18    30.00R
JACKSON        MOSUNNY   79  70  73 S16       30.01S
TRACY          MOSUNNY   81  71  70 S12G23    29.95S
SLAYTON        MOSUNNY   80  67  66 S17       29.99R
$$
MNZ065>067-074>077-082>085-091>093-131700-
   South Central Minnesota

CITY           SKY/WX    TMP DP  RH WIND       PRES   REMARKS
MANKATO        CLOUDY    75  74  96 S12       30.02S
NEW ULM        PTSUNNY   79  73  83 S10       29.99R
ST JAMES         N/A     81  73  78 S14       29.98F
FAIRMONT       MOSUNNY   81  73  76 S13       30.01F
GLENCOE        CLOUDY    76  72  86 SE7       30.00R
FARIBAULT      MOSUNNY   81  72  74 SE10      30.04S
OWATONNA       SUNNY     79  72  78 S9        30.04F
ALBERT LEA     MOSUNNY   79  72  78 S7        30.05S
$$
MNZ078>079-086>088-094>096-131700-
   Southeast Minnesota

CITY           SKY/WX    TMP DP  RH WIND       PRES   REMARKS
ROCHESTER      PTSUNNY   80  71  74 S13       30.08R
RED WING       SUNNY     79  66  65 SE12G18   30.03S
STANTON        SUNNY     80  72  75 S13G18    30.01S
DODGE CENTER   SUNNY     79  70  73 S9        30.07S
WINONA         PTSUNNY   75  64  69 E8        30.08S
AUSTIN         MOSUNNY   81  72  74 S10G16    30.06S
PRESTON        MOSUNNY   77  67  71 SE8       30.09S
$$
ABBREVIATIONS USED IN REMARKS
   TC - TEMPERATURES IN CELSIUS
  WCI - WIND CHILL INDEX
   HX - HEAT INDEX
  VSB - VISIBILITY
$$



USA.gov is the U.S. government's official web portal to all federal, state and local government web resources and services.